| time (UTC) | temp F | wind direction | speed MPH | gust MPH | rain 1hr in | rain 24hr in | rain mn in | humidity % | barometer mb |
| 20260504081556 | 45 | 268 | 3.0 | 4.0 | 0.00 | 0.00 | 0.00 | 65 | 1014.9 |
| 20260504044556 | 48 | 275 | 4.0 | 6.0 | 0.00 | 0.00 | 0.00 | 57 | 1014.8 |
| 20260504043101 | 49 | 226 | 1.0 | 4.0 | 0.00 | 0.00 | 0.00 | 55 | 1014.8 |
| 20260504041555 | 49 | 271 | 3.0 | 5.0 | 0.00 | 0.00 | 0.00 | 56 | 1014.7 |
| 20260504040132 | 48 | 240 | 2.0 | 3.0 | 0.00 | 0.00 | 0.00 | 57 | 1014.7 |
| 20260504034602 | 49 | 232 | 2.0 | 3.0 | 0.00 | 0.00 | 0.00 | 56 | 1014.6 |
| 20260504033058 | 49 | 228 | 3.0 | 4.0 | 0.00 | 0.00 | 0.00 | 55 | 1014.5 |
| 20260504031608 | 49 | 234 | 1.0 | 2.0 | 0.00 | 0.00 | 0.00 | 54 | 1014.4 |
| 20260504030053 | 49 | 256 | 2.0 | 2.0 | 0.00 | 0.00 | 0.00 | 54 | 1014.2 |
| 20260504024555 | 50 | 216 | 1.0 | 2.0 | 0.00 | 0.00 | 0.00 | 55 | 1014.4 |
| 20260504023056 | 51 | 248 | 1.0 | 2.0 | 0.00 | 0.00 | 0.00 | 51 | 1014.3 |
| 20260504021557 | 51 | 237 | 2.0 | 2.0 | 0.00 | 0.00 | 0.00 | 50 | 1014.5 |
| 20260504020109 | 51 | 229 | 2.0 | 3.0 | 0.00 | 0.00 | 0.00 | 49 | 1014.3 |
| 20260504014558 | 53 | 276 | 1.0 | 3.0 | 0.00 | 0.00 | 0.00 | 46 | 1014.1 |
| 20260504013058 | 53 | 239 | 1.0 | 2.0 | 0.00 | 0.00 | 0.00 | 45 | 1014.1 |
| 20260504011556 | 53 | 239 | 1.0 | 1.0 | 0.00 | 0.00 | 0.00 | 44 | 1014.0 |
| 20260504010058 | 54 | 238 | 0.0 | 1.0 | 0.00 | 0.00 | 0.00 | 43 | 1013.9 |
| 20260504004556 | 55 | 251 | 0.0 | 2.0 | 0.00 | 0.00 | 0.00 | 41 | 1013.8 |
| 20260504003053 | 56 | 270 | 2.0 | 4.0 | 0.00 | 0.00 | 0.00 | 40 | 1013.6 |
| 20260504001559 | 56 | 258 | 2.0 | 4.0 | 0.00 | 0.00 | 0.00 | 39 | 1013.7 |
| 20260504000059 | 57 | 308 | 1.0 | 4.0 | 0.00 | 0.00 | 0.00 | 39 | 1013.5 |
| 20260503234623 | 57 | 271 | 3.0 | 9.0 | 0.00 | 0.00 | 0.00 | 38 | 1013.2 |
| 20260503233057 | 58 | 293 | 1.0 | 10.0 | 0.00 | 0.00 | 0.00 | 37 | 1013.2 |
| 20260503231558 | 59 | 314 | 3.0 | 9.0 | 0.00 | 0.00 | 0.00 | 36 | 1013.1 |
| 20260503230056 | 60 | 283 | 3.0 | 11.0 | 0.00 | 0.00 | 0.00 | 36 | 1013.1 |
| 20260503224559 | 59 | 295 | 4.0 | 10.0 | 0.00 | 0.00 | 0.00 | 36 | 1013.1 |
| 20260503223057 | 60 | 245 | 4.0 | 14.0 | 0.00 | 0.00 | 0.00 | 36 | 1013.0 |
| 20260503221601 | 60 | 316 | 3.0 | 15.0 | 0.00 | 0.00 | 0.00 | 35 | 1013.1 |
| 20260503220059 | 61 | 258 | 5.0 | 13.0 | 0.00 | 0.00 | 0.00 | 37 | 1013.0 |
| 20260503214558 | 60 | 312 | 5.0 | 14.0 | 0.00 | 0.00 | 0.00 | 36 | 1013.1 |
| 20260503213057 | 61 | 312 | 4.0 | 16.0 | 0.00 | 0.00 | 0.00 | 36 | 1013.1 |
| 20260503211600 | 61 | 314 | 4.0 | 16.0 | 0.00 | 0.00 | 0.00 | 35 | 1012.9 |
| 20260503210054 | 61 | 18 | 4.0 | 14.0 | 0.00 | 0.00 | 0.00 | 35 | 1013.0 |
| 20260503204557 | 61 | 187 | 6.0 | 14.0 | 0.00 | 0.00 | 0.00 | 36 | 1012.9 |
| 20260503203058 | 61 | 4 | 4.0 | 12.0 | 0.00 | 0.00 | 0.00 | 36 | 1013.0 |
| 20260503201558 | 61 | 303 | 3.0 | 17.0 | 0.00 | 0.00 | 0.00 | 38 | 1013.2 |
| 20260503200059 | 60 | 39 | 6.0 | 16.0 | 0.00 | 0.00 | 0.00 | 35 | 1013.2 |
| 20260503194604 | 60 | 30 | 4.0 | 11.0 | 0.00 | 0.00 | 0.00 | 36 | 1013.4 |
| 20260503193059 | 58 | 216 | 2.0 | 11.0 | 0.00 | 0.00 | 0.00 | 40 | 1013.6 |
| 20260503191555 | 58 | 263 | 5.0 | 15.0 | 0.00 | 0.00 | 0.00 | 37 | 1013.6 |
| 20260503190103 | 58 | 325 | 7.0 | 15.0 | 0.00 | 0.00 | 0.00 | 36 | 1013.9 |
| 20260503184558 | 57 | 259 | 6.0 | 13.0 | 0.00 | 0.00 | 0.00 | 37 | 1014.2 |
| 20260503183102 | 58 | 320 | 6.0 | 20.0 | 0.00 | 0.00 | 0.00 | 37 | 1014.5 |
| 20260503181557 | 57 | 330 | 8.0 | 17.0 | 0.00 | 0.00 | 0.00 | 36 | 1014.6 |
| 20260503180109 | 57 | 299 | 4.0 | 16.0 | 0.00 | 0.00 | 0.00 | 39 | 1014.5 |
| 20260503174601 | 57 | 300 | 5.0 | 13.0 | 0.00 | 0.00 | 0.00 | 38 | 1014.7 |
| 20260503173057 | 55 | 27 | 7.0 | 17.0 | 0.00 | 0.00 | 0.00 | 39 | 1014.8 |
| 20260503171553 | 55 | 353 | 6.0 | 18.0 | 0.00 | 0.00 | 0.00 | 44 | 1014.9 |
| 20260503140107 | 48 | 319 | 7.0 | 14.0 | 0.00 | 0.00 | 0.00 | 48 | 1016.0 |
| 20260503110110 | 42 | 297 | 2.0 | 6.0 | 0.00 | 0.00 | 0.00 | 64 | 1015.4 |